Please be sure to check the latest weather conditions by clicking the link and viewing our local weather information!

Check Weather

Welcome to Lakeway Airpark (3R9)

FromTheAir

We’re a community airpark nestled within the town of Lakeway, Texas (17 miles northwest of downtown Austin).

Lakeway Airpark, Inc. was formed by Lakeway residents and interested parties to own and manage Lakeway Airpark (3R9).

The Airpark is a privately owned not for profit public use airport for residents and guests of Lakeway. No public funds are used and the airport is supported by fees and fuel sales at the airport.

Lakeway Airpark is an unmanned facility open for use from Sunrise to Sunset seven days a week. Takeoffs and landings are not permitted at night, between Sunset and Sunrise, by City Ordinance.

Quick Weather Info

Available data for KAUS from the past 2 hours

metar

  • KAUS 091453Z 03012KT 10SM OVC080 02/M08 A3063 RMK AO2 SLP381 T00171078 51003 $
  • KAUS 091353Z 01012KT 10SM OVC080 02/M08 A3063 RMK AO2 SLP380 T00171083 $

taf

  • KAUS 091122Z 0912/1018 02012KT P6SM OVC070 FM092000 06005KT P6SM SCT060 FM100400 VRB03KT P6SM BKN050 FM101500 13004KT P6SM OVC025